Flag for Argentina Weather past 2 weeks in Río Gallegos, Santa Cruz, Argentina

Now
37 °F

Low clouds.


Feels Like: 32 °F
Forecast: N/A
Wind: 7 mph from Southeast

Location: Rio Gallegos Aerodrome

Current Time: Jul 4, 2015 at 8:04:12 PM

Latest Report: Jul 4, 2015 at 7:00 PM


Visibility: 0 mi

Pressure: 29.56 "Hg

Humidity: 100%

Dew point: 37 °F

Location of Río GallegosLocation

Historic Weather in Río Gallegos — Graph

°F

Río Gallegos temperature yesterday

Maximum temperature yesterday: 41 °F (at 1:00 PM)
Minimum temperature yesterday: 36 °F (at 3:00 AM)
Average temperature yesterday: 38 °F

Past Weeks' High & Low Weather Summary

 TemperatureHumidityPressure
High57 °F (Jun 26, 12:00 PM)100% (Jun 20, 10:00 AM)30.04 "Hg (Jun 20, 10:00 AM)
Low28 °F (Jul 1, 9:00 PM)25% (Jun 23, 8:00 AM)28.91 "Hg (Jun 28, 5:00 AM)
Average38 °F69%29.59 "Hg
* Reported Jun 19 7:00 PM — Jul 4 7:00 PM, Río Gallegos, Weather by CustomWeather, © 2015

Note: Actual official high and low records may vary slightly from our data, if they occured in-between our weather recording intervals... More about our weather records

Advertising

Río Gallegos weather history for previous 24 hours

 ConditionsComfort  
Time TempWeatherWind HumidityBarometerVisibility
7:00 PM
Sat, Jul 4
37 °FLow clouds.7 mph100%29.56 "Hg1 mi
6:00 PM39 °FDense fog.7 mph93%29.56 "Hg1 mi
5:00 PM39 °FFog.7 mph93%29.59 "Hg3 mi
4:00 PM39 °FDrizzle. Low clouds.8 mph100%29.59 "Hg1 mi
3:00 PM37 °FFog.6 mph87%29.62 "Hg6 mi
2:00 PM39 °FMore clouds than sun.No wind93%29.65 "HgN/A
1:00 PM39 °FMostly cloudy.3 mph87%29.65 "HgN/A
12:00 PM37 °FMore clouds than sun.No wind93%29.65 "HgN/A
11:00 AM37 °FMostly cloudy.No wind87%29.68 "HgN/A
10:00 AM36 °FLow clouds.No wind93%29.68 "HgN/A
9:00 AM37 °FLow clouds.No wind93%29.68 "HgN/A
8:00 AM36 °FLight rain. Overcast.No wind93%29.68 "HgN/A
7:00 AM36 °FRain. Overcast.No wind93%29.71 "HgN/A
6:00 AM36 °FLight rain. Partly cloudy.No wind81%29.71 "HgN/A
5:00 AM36 °FLight rain. Partly cloudy.3 mph81%29.74 "HgN/A
4:00 AM39 °FPartly cloudy.9 mph56%29.77 "HgN/A
3:00 AM37 °FPartly cloudy.2 mph65%29.80 "HgN/A
2:00 AM37 °FPartly cloudy.6 mph60%29.80 "HgN/A
1:00 AM37 °FPartly cloudy.9 mph70%29.83 "HgN/A
12:00 AM37 °FPartly cloudy.2 mph70%29.83 "HgN/A
11:00 PM
Fri, Jul 3
37 °FClear.6 mph70%29.86 "Hg10 mi
10:00 PM37 °FPartly cloudy.No wind75%29.86 "HgN/A
9:00 PM39 °FPartly cloudy.No wind75%29.89 "HgN/A
8:00 PM39 °FLight rain. Partly cloudy.10 mph65%29.89 "HgN/A
Weather by CustomWeather, © 2015

See weather overviewHow to use our weather pages